Content
SEND FEEDBACK

Daily
Averages
Monthly
Summary
United States of America

MERIZO, GUAM


Home > North America > United States > Guam
Elevation: 3 meters     Latitude: 13 14N     Longitude: 144 39E

WEATHER
 
SELECT A DAY
Number of Records: 342,166;   Date Range: 1/1/95 - 8/12/14
 
SHARE

PRINT THIS DATA

[ ← Previous Day ]
WEATHER ALMANAC - 13 FEBRUARY, 2013
[ Next Day → ]
[ °F ]   °C
Weather ElementAverageHighLow
Temperature25.8 °C29 °C (12:12 pm)24 °C (2:51 am)
Dewpoint23.1 °C24 °C (10:56 am)22 °C (12:38 am)
Humidity85 %94 % (2:51 am)74 % (12:12 pm)
Barometer1010.8 hPa1012.5 hPa (9:55 am)1009.8 hPa (3:30 pm)
Wind Speed30.4 km/h51.8 km/h (2:57 am)
Wind Gust68.6 km/h (2:49 am)
Weather ElementAverage
Visibility14.6 km
Wind DirectionENE (68.1 °)

Weather ElementTotal
Precipitation2.03 mm
Cooling Degree Days8.2 (Base 18.3)
Growing Degree Days16.5 (Base 10)
Averaged from 111 records on 13 February, 2013
WEATHER CONDITIONS BREAKOUT
WIND DIRECTION BREAKOUT
WEATHER BY HOUR - 13 FEBRUARY, 2013
[ °F ]   °C
Local TimeTemperatureDewpointHumidityBarometerVisibilityWind DirectionWind SpeedGust SpeedPrecipitationEventsConditions
12:38 AM26 °C22 °C78 %1011.9 hPa16.1 kmEast (80°)35.2 km/hMostly Cloudy
12:51 AM26 °C22 °C78 %1011.9 hPa16.1 kmENE (60°)25.9 km/h37 km/hScattered Clouds
12:55 AM25.6 °C22.5 °C83 %1011.5 hPa16.1 kmENE (70°)33.3 km/h40.7 km/hScattered Clouds
1:55 AM25.5 °C22.6 °C84 %1011.2 hPa16.1 kmENE (60°)31.5 km/h46.3 km/hPartly Cloudy
2:19 AM26 °C22 °C78 %1010.8 hPa16.1 kmENE (60°)33.3 km/h42.6 km/hMostly Cloudy
2:43 AM26 °C23 °C83 %1010.8 hPa14.5 kmENE (60°)37 km/hRainLight Rain
2:49 AM25 °C23 °C89 %1010.8 hPa4.8 kmENE (60°)48.1 km/h68.6 km/hRainLight Rain
2:51 AM24 °C23 °C94 %1010.8 hPa4 kmENE (70°)48.1 km/h68.6 km/hRainLight Rain
2:53 AM24 °C23 °C94 %1011.2 hPa4 kmENE (70°)38.9 km/h68.6 km/hMostly Cloudy
2:55 AM24.1 °C23 °C94 %1011.2 hPa4 kmENE (70°)48.1 km/h68.6 km/h1.02 mmMostly Cloudy
2:57 AM24 °C23 °C94 %1011.2 hPa4.8 kmENE (70°)51.8 km/h68.6 km/hMostly Cloudy
2:58 AM24 °C23 °C94 %1011.2 hPa6.4 kmENE (70°)48.1 km/h64.9 km/hRainLight Rain
3:08 AM24 °C22 °C89 %1010.8 hPa14.5 kmENE (70°)37 km/h50.1 km/hOvercast
3:15 AM24 °C22 °C89 %1010.5 hPa16.1 kmENE (70°)31.5 km/h42.6 km/hOvercast
3:55 AM24.8 °C22.4 °C86 %1010.5 hPa16.1 kmEast (80°)37 km/h46.3 km/h0 mmOvercast
4:01 AM25 °C23 °C89 %1010.5 hPa16.1 kmENE (70°)25.9 km/hMostly Cloudy
4:37 AM25 °C23 °C89 %1010.5 hPa11.3 kmENE (60°)35.2 km/h44.4 km/hRainLight Rain
4:55 AM24 °C22.3 °C90 %1010.5 hPa11.3 kmEast (80°)35.2 km/h53.8 km/h0.51 mmLight Drizzle
5:00 AM24 °C22 °C89 %1010.8 hPa16.1 kmENE (70°)31.5 km/h48.1 km/hOvercast
5:10 AM24 °C23 °C94 %1010.8 hPa16.1 kmENE (60°)24.1 km/h42.6 km/hMostly Cloudy
5:16 AM24 °C23 °C94 %1010.5 hPa16.1 kmENE (70°)27.8 km/h40.7 km/hMostly Cloudy
5:22 AM25 °C23 °C89 %1010.8 hPa16.1 kmENE (70°)33.3 km/h40.7 km/hMostly Cloudy
5:25 AM25 °C23 °C89 %1010.8 hPa16.1 kmENE (70°)33.3 km/hMostly Cloudy
5:29 AM25 °C23 °C89 %1010.5 hPa16.1 kmENE (70°)33.3 km/h46.3 km/hMostly Cloudy
5:30 AM25 °C23 °C89 %1010.5 hPa16.1 kmENE (70°)33.3 km/h46.3 km/hMostly Cloudy
5:31 AM25 °C23 °C89 %1010.8 hPa16.1 kmENE (70°)27.8 km/h46.3 km/hMostly Cloudy
5:32 AM25 °C23 °C89 %1010.8 hPa16.1 kmENE (60°)25.9 km/h46.3 km/hMostly Cloudy
5:33 AM25 °C23 °C89 %1010.8 hPa16.1 kmENE (60°)25.9 km/h46.3 km/hMostly Cloudy
5:36 AM25 °C23 °C89 %1010.8 hPa16.1 kmENE (60°)31.5 km/h46.3 km/hMostly Cloudy
5:37 AM25 °C23 °C89 %1010.8 hPa16.1 kmENE (70°)31.5 km/h46.3 km/hMostly Cloudy
5:39 AM25 °C23 °C89 %1010.8 hPa16.1 kmENE (70°)29.6 km/h42.6 km/hMostly Cloudy
5:50 AM25 °C23 °C89 %1010.8 hPa16.1 kmENE (60°)31.5 km/hMostly Cloudy
5:55 AM24.7 °C22.7 °C89 %1010.8 hPa16.1 kmENE (60°)29.6 km/h0 mmMostly Cloudy
5:56 AM25 °C23 °C89 %1010.8 hPa16.1 kmENE (60°)29.6 km/hMostly Cloudy
6:11 AM25 °C23 °C89 %1010.8 hPa16.1 kmENE (70°)31.5 km/hMostly Cloudy
6:24 AM25 °C23 °C89 %1011.2 hPa16.1 kmENE (70°)29.6 km/h38.9 km/hMostly Cloudy
6:35 AM25 °C23 °C89 %1011.2 hPa16.1 kmENE (70°)33.3 km/h40.7 km/hMostly Cloudy
6:37 AM25 °C23 °C89 %1011.2 hPa16.1 kmENE (70°)31.5 km/h40.7 km/hMostly Cloudy
6:55 AM25 °C22.6 °C86 %1011.2 hPa16.1 kmENE (70°)31.5 km/hScattered Clouds
7:55 AM26 °C22.1 °C79 %1011.9 hPa16.1 kmEast (80°)24.1 km/h40.7 km/hScattered Clouds
8:15 AM26 °C22 °C78 %1011.9 hPa11.3 kmEast (80°)27.8 km/h40.7 km/hRainLight Rain
8:24 AM25 °C23 °C89 %1011.9 hPa14.5 kmENE (70°)27.8 km/hScattered Clouds
8:55 AM26.1 °C23.1 °C83 %1012.2 hPa16.1 kmENE (70°)31.5 km/h0.25 mmPartly Cloudy
9:55 AM26 °C22.1 °C79 %1012.5 hPa16.1 kmEast (80°)27.8 km/hMostly Cloudy
9:59 AM26 °C22 °C78 %1012.5 hPa16.1 kmEast (80°)27.8 km/hMostly Cloudy
10:09 AM26 °C23 °C83 %1012.5 hPa16.1 kmEast (80°)24.1 km/hMostly Cloudy
10:55 AM26.6 °C23.4 °C82 %1012.2 hPa11.3 kmENE (70°)27.8 km/h0 mmRainLight Rain
10:56 AM26 °C24 °C89 %1012.2 hPa9.7 kmEast (80°)25.9 km/hRainLight Rain
10:58 AM26 °C24 °C89 %1012.2 hPa9.7 kmENE (70°)25.9 km/hRainLight Rain
11:03 AM26 °C24 °C89 %1012.2 hPa11.3 kmEast (80°)22.2 km/hScattered Clouds
11:54 AM28 °C24 °C79 %1011.5 hPa16.1 kmENE (70°)27.8 km/h38.9 km/hMostly Cloudy
11:55 AM27.7 °C23.7 °C79 %1011.5 hPa16.1 kmEast (80°)27.8 km/h38.9 km/h0 mmMostly Cloudy
12:03 PM28 °C24 °C79 %1011.5 hPa16.1 kmENE (70°)24.1 km/hMostly Cloudy
12:04 PM28 °C24 °C79 %1011.5 hPa16.1 kmENE (60°)24.1 km/hMostly Cloudy
12:05 PM28 °C24 °C79 %1011.2 hPa16.1 kmENE (60°)29.6 km/h38.9 km/hMostly Cloudy
12:09 PM28 °C24 °C79 %1011.2 hPa16.1 kmENE (70°)29.6 km/h38.9 km/hScattered Clouds
12:12 PM29 °C24 °C74 %1011.2 hPa16.1 kmEast (80°)27.8 km/h38.9 km/hMostly Cloudy
12:14 PM29 °C24 °C74 %1011.5 hPa16.1 kmENE (70°)29.6 km/h38.9 km/hScattered Clouds
12:35 PM26 °C24 °C89 %1011.2 hPa9.7 kmENE (60°)29.6 km/h50.1 km/hLight Drizzle
12:36 PM26 °C24 °C89 %1011.2 hPa9.7 kmENE (60°)25.9 km/h50.1 km/hLight Drizzle
12:39 PM26 °C24 °C89 %1011.2 hPa9.7 kmENE (60°)27.8 km/h50.1 km/hLight Drizzle
12:42 PM26 °C23 °C83 %1011.2 hPa9.7 kmENE (60°)25.9 km/hHaze
12:55 PM26.7 °C23.7 °C83 %1011.2 hPa16.1 kmENE (60°)29.6 km/h0 mmPartly Cloudy
1:39 PM28 °C24 °C79 %1010.5 hPa16.1 kmENE (60°)25.9 km/h35.2 km/hMostly Cloudy
1:45 PM28 °C24 °C79 %1010.5 hPa16.1 kmENE (70°)25.9 km/hScattered Clouds
1:55 PM28.3 °C23.8 °C76 %1010.5 hPa16.1 kmENE (60°)27.8 km/h37 km/hScattered Clouds
2:03 PM29 °C24 °C74 %1010.5 hPa16.1 kmENE (60°)29.6 km/h38.9 km/hMostly Cloudy
2:09 PM28 °C24 °C79 %1010.2 hPa16.1 kmEast (80°)25.9 km/h38.9 km/hScattered Clouds
2:17 PM28 °C24 °C79 %1010.2 hPa16.1 kmENE (60°)27.8 km/hMostly Cloudy
2:31 PM28 °C24 °C79 %1010.2 hPa9.7 kmENE (60°)29.6 km/h35.2 km/hRainLight Rain
2:44 PM26 °C24 °C89 %1010.2 hPa16.1 kmENE (60°)22.2 km/hMostly Cloudy
2:45 PM26 °C24 °C89 %1010.2 hPa16.1 kmENE (60°)24.1 km/hMostly Cloudy
2:47 PM26 °C24 °C89 %1010.2 hPa16.1 kmENE (70°)25.9 km/hMostly Cloudy
2:55 PM26.8 °C23.9 °C84 %1010.2 hPa16.1 kmEast (80°)25.9 km/h0.25 mmMostly Cloudy
3:30 PM27 °C24 °C84 %1009.8 hPa11.3 kmENE (70°)31.5 km/h44.4 km/hRainLight Rain
3:31 PM27 °C24 °C84 %1009.8 hPa9.7 kmEast (80°)31.5 km/h44.4 km/hLight Drizzle
3:32 PM27 °C24 °C84 %1009.8 hPa9.7 kmEast (80°)29.6 km/h44.4 km/hLight Drizzle
3:40 PM26 °C23 °C83 %1009.8 hPa14.5 kmENE (70°)24.1 km/hScattered Clouds
3:42 PM26 °C23 °C83 %1009.8 hPa16.1 kmEast (80°)24.1 km/hMostly Cloudy
3:46 PM26 °C23 °C83 %1009.8 hPa16.1 kmEast (80°)24.1 km/hScattered Clouds
3:55 PM26.4 °C23.3 °C83 %1009.8 hPa16.1 kmEast (80°)24.1 km/h0 mmScattered Clouds
4:48 PM26 °C23 °C83 %1010.2 hPa16.1 kmENE (60°)24.1 km/hMostly Cloudy
4:55 PM26 °C22.8 °C82 %1010.2 hPa16.1 kmENE (60°)22.2 km/hMostly Cloudy
4:59 PM26 °C23 °C83 %1010.2 hPa16.1 kmENE (60°)20.4 km/hMostly Cloudy
5:47 PM26 °C23 °C83 %1010.2 hPa16.1 kmENE (60°)31.5 km/hMostly Cloudy
5:55 PM26.2 °C23.1 °C83 %1010.2 hPa16.1 kmENE (60°)27.8 km/hMostly Cloudy
6:02 PM26 °C23 °C83 %1010.2 hPa16.1 kmENE (60°)29.6 km/h37 km/hMostly Cloudy
6:14 PM26 °C23 °C83 %1010.2 hPa16.1 kmENE (60°)29.6 km/hMostly Cloudy
6:55 PM25.5 °C22.9 °C85 %1010.5 hPa16.1 kmENE (70°)27.8 km/h38.9 km/hScattered Clouds
7:10 PM26 °C23 °C83 %1010.5 hPa16.1 kmENE (70°)24.1 km/h40.7 km/hMostly Cloudy
7:12 PM26 °C23 °C83 %1010.5 hPa16.1 kmENE (60°)27.8 km/h40.7 km/hScattered Clouds
7:13 PM26 °C23 °C83 %1010.5 hPa16.1 kmENE (60°)31.5 km/h40.7 km/hMostly Cloudy
7:55 PM25.7 °C23.3 °C87 %1010.8 hPa16.1 kmENE (60°)25.9 km/h38.9 km/hMostly Cloudy
8:08 PM26 °C23 °C83 %1010.8 hPa16.1 kmENE (70°)29.6 km/h46.3 km/hMostly Cloudy
8:10 PM26 °C23 °C83 %1011.2 hPa16.1 kmENE (70°)29.6 km/h46.3 km/hMostly Cloudy
8:26 PM26 °C23 °C83 %1011.2 hPa16.1 kmENE (70°)29.6 km/h38.9 km/hMostly Cloudy
8:55 PM25.8 °C23.3 °C86 %1011.5 hPa16.1 kmNE (50°)25.9 km/h38.9 km/hMostly Cloudy
9:09 PM25 °C24 °C94 %1011.5 hPa16.1 kmEast (80°)29.6 km/h50.1 km/hOvercast
9:12 PM25 °C23 °C89 %1011.5 hPa16.1 kmEast (90°)29.6 km/h50.1 km/hOvercast
9:16 PM25 °C23 °C89 %1011.5 hPa16.1 kmEast (80°)33.3 km/h48.1 km/hOvercast
9:18 PM25 °C23 °C89 %1011.5 hPa16.1 kmEast (80°)33.3 km/h48.1 km/hOvercast
9:19 PM25 °C23 °C89 %1011.9 hPa16.1 kmENE (70°)35.2 km/h46.3 km/hOvercast
9:21 PM25 °C23 °C89 %1011.9 hPa16.1 kmEast (80°)33.3 km/h46.3 km/hOvercast
9:38 PM25 °C23 °C89 %1011.9 hPa16.1 kmENE (60°)35.2 km/h48.1 km/hMostly Cloudy
9:55 PM24.8 °C22.5 °C87 %1011.9 hPa16.1 kmENE (60°)33.3 km/h44.4 km/hMostly Cloudy
10:36 PM26 °C22 °C78 %1011.9 hPa16.1 kmENE (60°)40.7 km/h51.8 km/hMostly Cloudy
10:47 PM26 °C22 °C78 %1011.9 hPa16.1 kmENE (60°)33.3 km/h50.1 km/hMostly Cloudy
10:55 PM25.9 °C22.3 °C80 %1011.9 hPa16.1 kmENE (60°)40.7 km/h50.1 km/hMostly Cloudy
11:16 PM26 °C23 °C83 %1011.9 hPa16.1 kmENE (60°)37 km/h46.3 km/hMostly Cloudy
11:30 PM26 °C22 °C78 %1011.9 hPa16.1 kmENE (60°)38.9 km/h48.1 km/hScattered Clouds
11:55 PM25.6 °C22.4 °C82 %1011.5 hPa16.1 kmENE (70°)31.5 km/h51.8 km/hPartly Cloudy
Hourly data recorded from PGUA, located 0 kilometers away from Merizo, Guam







STORIES FROM OUR PARTNERS